| time (UTC) | temp C | wind direction | speed KPH | gust KPH | rain 1hr cm | rain 24hr cm | rain mn cm | humidity % | barometer mb |
| 20260508111608 | 5 | 281 | 0.0 | 0.0 | 0.03 | 0.36 | 0.03 | 83 | 1002.7 |
| 20260508110100 | 5 | 303 | 0.0 | 0.0 | 0.03 | 0.36 | 0.03 | 83 | 1002.5 |
| 20260508104556 | 4 | 303 | 0.0 | 0.0 | 0.00 | 0.33 | 0.00 | 83 | 1002.3 |
| 20260508103100 | 4 | 303 | 0.0 | 0.0 | 0.00 | 0.33 | 0.00 | 82 | 1002.2 |
| 20260508101600 | 4 | 303 | 0.0 | 0.0 | 0.00 | 0.33 | 0.00 | 82 | 1002.1 |
| 20260508100052 | 4 | 303 | 0.0 | 0.0 | 0.00 | 0.41 | 0.00 | 82 | 1002.0 |
| 20260508094648 | 4 | 275 | 0.0 | 0.0 | 0.00 | 0.41 | 0.00 | 82 | 1001.8 |
| 20260508093047 | 3 | 254 | 0.0 | 0.0 | 0.00 | 0.41 | 0.00 | 82 | 1001.6 |
| 20260508091554 | 3 | 249 | 0.0 | 0.0 | 0.00 | 0.41 | 0.00 | 82 | 1001.5 |
| 20260508084546 | 3 | 248 | 0.0 | 0.0 | 0.00 | 0.46 | 0.00 | 82 | 1001.3 |
| 20260508083045 | 3 | 248 | 0.0 | 0.0 | 0.00 | 0.46 | 0.00 | 82 | 1001.3 |
| 20260508081545 | 3 | 248 | 0.0 | 0.0 | 0.00 | 0.46 | 0.00 | 82 | 1001.3 |
| 20260508080044 | 3 | 266 | 0.0 | 0.0 | 0.00 | 0.48 | 0.00 | 82 | 1001.2 |
| 20260508074545 | 3 | 266 | 0.0 | 0.0 | 0.00 | 0.48 | 0.00 | 82 | 1001.1 |
| 20260508073046 | 3 | 266 | 0.0 | 0.0 | 0.00 | 0.48 | 0.00 | 81 | 1001.1 |
| 20260508071552 | 3 | 274 | 0.0 | 0.0 | 0.00 | 0.48 | 0.00 | 81 | 1001.0 |
| 20260508070141 | 3 | 269 | 0.0 | 0.0 | 0.00 | 0.71 | 0.00 | 81 | 1001.1 |
| 20260508064540 | 3 | 256 | 0.0 | 0.0 | 0.00 | 0.71 | 0.00 | 81 | 1001.1 |
| 20260508063038 | 3 | 250 | 0.0 | 0.0 | 0.00 | 0.71 | 0.00 | 80 | 1001.2 |
| 20260508061538 | 3 | 247 | 0.0 | 0.0 | 0.00 | 0.71 | 0.00 | 80 | 1001.2 |
| 20260508060036 | 3 | 213 | 0.0 | 0.0 | 0.00 | 1.12 | 0.00 | 79 | 1001.3 |
| 20260508054534 | 3 | 202 | 0.0 | 0.0 | 0.00 | 1.12 | 0.00 | 79 | 1001.4 |
| 20260508053056 | 3 | 202 | 0.0 | 0.0 | 0.00 | 1.12 | 0.00 | 78 | 1001.5 |
| 20260508051530 | 3 | 213 | 0.0 | 0.0 | 0.00 | 1.12 | 0.00 | 78 | 1001.6 |
| 20260508050029 | 3 | 224 | 0.0 | 0.0 | 0.00 | 1.42 | 0.00 | 77 | 1001.7 |
| 20260508044529 | 4 | 177 | 0.0 | 0.0 | 0.00 | 1.42 | 0.00 | 76 | 1001.7 |
| 20260508043026 | 3 | 193 | 0.0 | 0.0 | 0.00 | 1.42 | 0.00 | 77 | 1001.6 |
| 20260508041542 | 4 | 188 | 0.0 | 0.0 | 0.00 | 1.42 | 0.00 | 77 | 1001.7 |
| 20260508040027 | 4 | 272 | 0.0 | 0.0 | 0.00 | 1.73 | 1.42 | 77 | 1001.6 |
| 20260508034529 | 4 | 229 | 0.0 | 0.0 | 0.00 | 1.73 | 1.42 | 77 | 1001.6 |
| 20260508033023 | 4 | 229 | 0.0 | 0.0 | 0.00 | 1.73 | 1.42 | 76 | 1001.7 |
| 20260508031519 | 5 | 227 | 0.0 | 0.0 | 0.00 | 1.73 | 1.42 | 75 | 1001.8 |
| 20260508030024 | 5 | 227 | 0.0 | 0.0 | 0.00 | 1.83 | 1.42 | 76 | 1001.8 |
| 20260508024519 | 5 | 227 | 0.0 | 0.0 | 0.00 | 1.83 | 1.42 | 76 | 1001.9 |
| 20260508023014 | 5 | 272 | 0.0 | 0.0 | 0.00 | 1.83 | 1.42 | 75 | 1002.0 |
| 20260508021615 | 5 | 238 | 0.0 | 0.0 | 0.00 | 1.83 | 1.42 | 76 | 1002.0 |
| 20260508020020 | 5 | 245 | 0.0 | 0.0 | 0.00 | 1.93 | 1.42 | 77 | 1002.1 |
| 20260508014512 | 5 | 245 | 0.0 | 0.0 | 0.00 | 1.93 | 1.42 | 76 | 1002.1 |
| 20260508013009 | 6 | 245 | 0.0 | 0.0 | 0.00 | 1.93 | 1.42 | 74 | 1002.1 |
| 20260508011513 | 6 | 243 | 0.0 | 0.0 | 0.00 | 1.93 | 1.42 | 74 | 1002.0 |
| 20260508010009 | 6 | 244 | 0.0 | 0.0 | 0.00 | 2.11 | 1.42 | 73 | 1001.9 |
| 20260508004510 | 6 | 246 | 0.0 | 0.0 | 0.00 | 2.11 | 1.42 | 72 | 1001.9 |
| 20260508003007 | 7 | 246 | 0.0 | 6.4 | 0.00 | 2.11 | 1.42 | 71 | 1001.7 |
| 20260508001507 | 7 | 268 | 3.2 | 12.9 | 0.00 | 2.11 | 1.42 | 70 | 1001.5 |
| 20260508000006 | 8 | 276 | 1.6 | 14.5 | 0.00 | 2.39 | 1.42 | 71 | 1001.4 |
| 20260507234507 | 8 | 249 | 0.0 | 8.0 | 0.00 | 2.39 | 1.42 | 73 | 1001.3 |
| 20260507233012 | 8 | 275 | 0.0 | 9.7 | 0.00 | 2.39 | 1.42 | 73 | 1001.2 |
| 20260507231504 | 8 | 282 | 0.0 | 11.3 | 0.00 | 2.39 | 1.42 | 74 | 1001.1 |
| 20260507230005 | 8 | 239 | 0.0 | 9.7 | 0.00 | 2.57 | 1.42 | 79 | 1000.9 |
| 20260507224505 | 8 | 229 | 0.0 | 14.5 | 0.00 | 2.57 | 1.42 | 81 | 1000.9 |
| 20260507223004 | 8 | 221 | 0.0 | 9.7 | 0.05 | 2.57 | 1.42 | 81 | 1000.9 |
| 20260507221503 | 8 | 186 | 0.0 | 12.9 | 0.20 | 2.57 | 1.42 | 80 | 1000.7 |
| 20260507220002 | 8 | 172 | 4.8 | 16.1 | 0.30 | 2.82 | 1.42 | 80 | 1000.6 |
| 20260507214502 | 8 | 178 | 4.8 | 14.5 | 0.30 | 2.82 | 1.42 | 79 | 1000.4 |
| 20260507213003 | 8 | 173 | 3.2 | 14.5 | 0.28 | 2.77 | 1.37 | 78 | 1000.4 |
| 20260507211601 | 10 | 26 | 0.0 | 0.0 | 0.13 | 2.62 | 1.22 | 74 | 999.8 |
| 20260507210105 | 11 | 346 | 0.0 | 0.0 | 0.03 | 2.77 | 1.12 | 68 | 1000.0 |
| 20260507204600 | 11 | 178 | 0.0 | 6.4 | 0.03 | 2.77 | 1.12 | 68 | 999.6 |
| 20260507203102 | 11 | 178 | 0.0 | 9.7 | 0.00 | 2.74 | 1.09 | 68 | 999.5 |
| 20260507200058 | 12 | 207 | 0.0 | 4.8 | 0.00 | 3.07 | 1.09 | 66 | 999.5 |
| 20260507194619 | 10 | 189 | 0.0 | 9.7 | 0.00 | 3.07 | 1.09 | 72 | 999.7 |
| 20260507193057 | 9 | 185 | 1.6 | 11.3 | 0.00 | 3.07 | 1.09 | 74 | 1000.0 |
| 20260507191556 | 10 | 190 | 4.8 | 16.1 | 0.00 | 3.07 | 1.09 | 67 | 1000.0 |
| 20260507190057 | 11 | 186 | 1.6 | 9.7 | 0.00 | 3.20 | 1.09 | 56 | 999.7 |
| 20260507184554 | 11 | 181 | 0.0 | 4.8 | 0.00 | 3.20 | 1.09 | 56 | 999.6 |
| 20260507183055 | 12 | 211 | 0.0 | 8.0 | 0.00 | 3.20 | 1.09 | 51 | 999.9 |
| 20260507181557 | 13 | 246 | 1.6 | 12.9 | 0.00 | 3.20 | 1.09 | 51 | 999.9 |
| 20260507180051 | 13 | 244 | 0.0 | 14.5 | 0.00 | 3.35 | 1.09 | 51 | 1000.0 |
| 20260507174557 | 13 | 186 | 0.0 | 11.3 | 0.00 | 3.35 | 1.09 | 56 | 1000.0 |
| 20260507173119 | 12 | 190 | 1.6 | 12.9 | 0.00 | 3.35 | 1.09 | 55 | 1000.1 |
| 20260507171554 | 13 | 312 | 1.6 | 11.3 | 0.00 | 3.35 | 1.09 | 52 | 1000.0 |
| 20260507170105 | 14 | 240 | 0.0 | 0.0 | 0.00 | 3.38 | 1.09 | 52 | 1000.1 |
| 20260507164553 | 13 | 253 | 0.0 | 0.0 | 0.00 | 3.38 | 1.09 | 50 | 1000.3 |
| 20260507163042 | 13 | 292 | 0.0 | 0.0 | 0.00 | 3.38 | 1.09 | 57 | 1000.5 |
| 20260507161557 | 12 | 239 | 0.0 | 0.0 | 0.00 | 3.38 | 1.09 | 60 | 1000.6 |
| 20260507160041 | 12 | 236 | 0.0 | 0.0 | 0.00 | 3.48 | 1.09 | 68 | 1001.0 |
| 20260507154541 | 11 | 193 | 0.0 | 0.0 | 0.00 | 3.48 | 1.09 | 72 | 1001.0 |
| 20260507153038 | 11 | 258 | 0.0 | 0.0 | 0.00 | 3.48 | 1.09 | 70 | 1001.2 |
| 20260507151533 | 11 | 250 | 0.0 | 0.0 | 0.00 | 3.48 | 1.09 | 71 | 1001.3 |
| 20260507150028 | 10 | 290 | 0.0 | 0.0 | 0.00 | 3.48 | 1.09 | 75 | 1001.4 |
| 20260507144531 | 10 | 267 | 0.0 | 0.0 | 0.00 | 3.48 | 1.09 | 76 | 1001.5 |
| 20260507143025 | 9 | 347 | 0.0 | 0.0 | 0.00 | 3.48 | 1.09 | 77 | 1001.6 |
| 20260507131506 | 7 | 287 | 0.0 | 0.0 | 0.00 | 3.48 | 1.09 | 83 | 1001.7 |
| 20260507130004 | 7 | 277 | 0.0 | 0.0 | 0.00 | 3.48 | 1.09 | 84 | 1002.1 |
| 20260507124508 | 7 | 281 | 0.0 | 1.6 | 0.00 | 3.48 | 1.09 | 85 | 1001.9 |
| 20260507123004 | 7 | 255 | 0.0 | 9.7 | 0.00 | 3.48 | 1.09 | 86 | 1001.9 |
| 20260507121501 | 6 | 255 | 0.0 | 0.0 | 0.00 | 3.48 | 1.09 | 86 | 1001.9 |
| 20260507120105 | 6 | 275 | 0.0 | 0.0 | 0.00 | 3.51 | 1.09 | 87 | 1001.9 |
| 20260507114615 | 6 | 285 | 0.0 | 0.0 | 0.00 | 3.51 | 1.09 | 87 | 1001.8 |
| 20260507113059 | 6 | 223 | 0.0 | 0.0 | 0.00 | 3.51 | 1.09 | 87 | 1001.9 |